[[{"header":{"parameterUnit":"m.s-1","parameterCategory":1,"la1":30.2991,"la2":30.254,"lo1":-89.0895,"lo2":-89.0444,"dy":0.0017,"dx":0.0017,"nx":28,"ny":28,"refTime":"2023-10-23T21:00:00:Z","depth":0,"parameterNumber":2,"parameterNumberName":"U-component_of_WINDS"},"data":[0,0,0,0,0,0,0,0,0,0,0,0,0,0,0,0,0,0,0,0,0,0,0,0,0,0,0,0,0,0,0,0,0,0,0,0,0,0,0,0,0,0,0,0,0,0,0,0,0,0,0,0,0,0,0,0,0,0,-3.567,-3.567,0,-3.5686,-3.5686,-3.5686,-3.56,-3.5598,-3.5595,-3.5593,-3.5607,-3.561,-3.5613,0,0,0,0,0,0,0,0,0,0,0,0,0,-3.5566,-3.5568,-3.567,-3.567,-3.567,-3.5686,-3.5686,-3.5686,-3.56,-3.5597,-3.5594,-3.5592,-3.5607,-3.561,-3.5613,0,0,0,0,0,0,0,0,0,0,0,0,0,-3.5599,-3.5569,-3.567,-3.5629,-3.5626,-3.5686,-3.5686,-3.5686,-3.5601,-3.5597,-3.5594,-3.559,-3.5606,-3.5609,-3.5613,-3.5712,0,0,-3.5626,-3.5628,0,0,0,0,0,0,0,0,-3.5598,-3.5603,-3.5635,-3.5632,-3.5629,-3.5637,-3.5655,-3.5695,-3.5602,-3.5611,-3.5593,-3.5588,-3.562,-3.5623,-3.5634,-3.5713,-3.5714,-3.5626,-3.5629,-3.563,-3.5631,0,0,0,0,0,0,0,-3.5595,-3.5602,-3.5676,-3.5636,-3.5632,-3.5611,-3.5611,-3.5662,-3.5636,-3.5609,-3.5603,-3.5606,-3.5618,-3.563,-3.5634,-3.5714,-3.5626,-3.563,-3.5632,-3.5634,-3.5877,-3.5881,0,0,0,0,0,0,-3.5599,-3.5601,-3.5676,-3.5677,-3.5604,-3.5616,-3.5616,-3.5638,-3.5635,-3.5631,-3.561,-3.5602,-3.5625,-3.5629,-3.5634,-3.575,-3.563,-3.5634,-3.5636,-3.5873,-3.5878,-3.5883,0,0,0,0,0,0,-3.5597,-3.5606,-3.5675,-3.5637,-3.5644,-3.5621,-3.5647,-3.564,-3.5653,-3.5635,-3.563,-3.5627,-3.5622,-3.5628,-3.5694,-3.5749,-3.5636,-3.564,-3.5868,-3.5875,-3.588,-3.5982,0,0,0,0,0,0,-3.5594,-3.5606,-3.5643,-3.5639,-3.5647,-3.5735,-3.565,-3.5643,-3.566,-3.5651,-3.565,-3.5646,-3.562,-3.5689,-3.5698,-3.5753,-3.5643,-3.5863,-3.5871,-3.5878,-3.5974,-3.5991,-3.6006,0,0,0,0,0,-3.5591,-3.567,-3.5645,-3.5654,-3.5692,-3.5738,-3.5743,-3.5711,-3.5665,-3.5702,-3.5691,-3.5646,-3.5742,-3.5696,-3.5706,-3.5763,-3.586,-3.5869,-3.5878,-3.5967,-3.5988,-3.6006,0,0,0,0,0,0,-3.5679,-3.5668,-3.564,-3.5721,-3.5732,-3.5723,-3.5769,-3.5734,-3.5757,-3.5747,-3.5706,-3.5707,-3.578,-3.5778,-3.5727,-3.5859,-3.5793,-3.5805,-3.5857,-3.5877,-3.5893,-3.5891,-3.5646,0,0,0,0,0,-3.5709,-3.5747,-3.5735,-3.5808,-3.5815,-3.5792,-3.581,-3.5785,-3.5794,-3.5797,-3.5791,-3.5801,-3.5834,-3.5856,-3.5885,-3.5975,-3.5973,-3.6019,-3.6035,-3.6048,-3.6058,-3.6107,-3.6127,-3.5912,-3.5912,-3.5912,0,0,-3.5768,-3.5768,-3.5794,-3.5826,-3.583,-3.5871,-3.5795,-3.5841,-3.5871,-3.5804,-3.5866,-3.5863,-3.5871,-3.595,-3.5985,-3.5951,-3.6118,-3.606,-3.6071,-3.6073,-3.6118,-3.6138,-3.6156,-3.5919,-3.5917,-3.5917,0,0,-3.5898,-3.5902,-3.5962,-3.597,-3.598,-3.5964,-3.598,-3.5978,-3.5973,-3.6036,-3.5987,-3.6023,-3.6079,-3.6088,-3.6099,-3.6238,-3.6198,-3.6249,-3.6331,-3.6379,-3.6396,-3.6411,-3.646,-3.6478,-3.6259,-3.6259,-3.626,0,-3.5971,-3.603,-3.5998,-3.6048,-3.6064,-3.6008,-3.607,-3.6079,-3.6097,-3.6109,-3.6072,-3.6143,-3.6145,-3.6226,-3.626,-3.6272,-3.6288,-3.6247,-3.6396,-3.6411,-3.6424,-3.647,-3.6489,-3.6265,-3.6265,-3.6264,-3.6264,0,-3.612,-3.6162,-3.621,-3.6231,-3.6253,-3.6308,-3.6285,-3.6311,-3.6286,-3.6275,-3.634,-3.6342,-3.637,-3.6388,-3.6363,-3.6467,-3.6445,-3.6403,-3.6335,-3.6451,-3.6494,-3.6511,-3.6274,-3.6272,-3.627,-3.6269,0,0,-3.63,-3.6306,-3.6324,-3.6334,-3.6342,-3.6374,-3.6429,-3.6459,-3.6482,-3.6498,-3.6542,-3.6594,-3.6556,-3.657,-3.6546,-3.6589,-3.6699,-3.6541,-3.6541,-3.6569,-3.6813,-3.6843,-3.6864,-3.6674,-3.6677,-3.668,-3.6812,0,-3.6426,-3.6519,-3.6494,-3.6586,-3.6626,-3.6576,-3.6624,-3.6635,-3.6627,-3.666,-3.6652,-3.6689,-3.6636,-3.6644,-3.6685,-3.6677,-3.6747,-3.6667,-3.6714,-3.6716,-3.6711,-3.6886,-3.6918,-3.7042,-3.6828,-3.6831,-3.6833,0,-3.6584,-3.6609,-3.6706,-3.6711,-3.6726,-3.6769,-3.6795,-3.6828,-3.684,-3.6832,-3.685,-3.6819,-3.6874,-3.6808,-3.6883,-3.683,-3.6848,-3.6848,-3.6852,-3.6853,-3.678,-3.6891,-3.7081,-3.7099,-3.6859,-3.6857,-3.6855,0,-3.6706,-3.6763,-3.6828,-3.6839,-3.6846,-3.6878,-3.6882,-3.6891,-3.6912,-3.6935,-3.6948,-3.6978,-3.6994,-3.7018,-3.6996,-3.6951,-3.7075,-3.7008,-3.707,-3.707,-3.7095,-3.7093,-3.7289,-3.7111,-3.7111,-3.711,-3.711,0,-3.6847,-3.6908,-3.6883,-3.6923,-3.6991,-3.6963,-3.7031,-3.703,-3.7039,-3.7079,-3.7039,-3.7077,-3.7047,-3.7083,-3.7067,-3.7131,-3.7139,-3.7134,-3.7128,-3.7136,-3.7137,-3.7146,-3.7136,-3.7115,-3.7114,-3.7113,-3.7112,0,-3.6992,-3.6978,-3.7046,-3.7049,-3.7052,-3.7102,-3.7104,-3.7142,-3.7134,-3.7185,-3.7195,-3.7182,-3.7223,-3.7205,-3.7247,-3.7236,-3.7319,-3.7303,-3.7315,-3.731,-3.7373,-3.7367,-3.7579,-3.7606,-3.7412,-3.7414,-3.7416,0,-3.7082,-3.7128,-3.7138,-3.7162,-3.717,-3.7209,-3.7231,-3.7206,-3.723,-3.7251,-3.7286,-3.7324,-3.7352,-3.742,-3.7414,-3.7447,-3.743,-3.7503,-3.7435,-3.7442,-3.743,-3.7427,-3.7432,-3.7515,-3.7518,-3.752,-3.7521,0,-3.7243,-3.7235,-3.7267,-3.73,-3.7327,-3.735,-3.737,-3.7392,-3.7369,-3.7399,-3.744,-3.7463,-3.7508,-3.7546,-3.7576,-3.7581,-3.7547,-3.7544,-3.7559,-3.7566,-3.7571,-3.7569,-3.735,-3.7538,-3.7536,-3.7535,-3.7534,-3.7533,-3.7362,-3.7401,-3.7415,-3.7454,-3.7467,-3.7488,-3.7524,-3.7522,-3.7557,-3.7592,-3.7576,-3.7625,-3.7639,-3.7676,-3.7687,-3.7725,-3.7696,-3.7719,-3.7725,-3.773,-3.7738,-3.7568,-3.773,-3.773,-3.7729,-3.7729,-3.7729,0,-3.752,-3.7527,-3.7564,-3.7594,-3.7625,-3.7594,-3.7616,-3.7644,-3.7688,-3.7704,-3.7735,-3.7784,-3.7822,-3.7821,-3.7856,-3.7887,-3.7873,-3.7897,-3.7893,-3.7895,-3.7762,-3.7744,-3.7908,-3.7908,-3.7908,-3.7908,-3.7908,-3.7908,-3.7605,-3.7671,-3.7665,-3.7738,-3.7745,-3.7793,-3.7809,-3.7828,-3.7841,-3.7899,-3.7931,-3.7931,-3.7941,-3.7978,-3.8012,-3.8011,-3.8025,-3.8055,-3.8048,-3.7923,-3.7905,-3.7887,-3.787,-3.8058,-3.8059,-3.8178,-3.8179,-3.818]},{"header":{"parameterUnit":"m.s-1","parameterCategory":1,"la1":30.2991,"la2":30.254,"lo1":-89.0895,"lo2":-89.0444,"dy":0.0017,"dx":0.0017,"nx":28,"ny":28,"refTime":"2023-10-23T21:00:00:Z","depth":0,"parameterNumber":3,"parameterNumberName":"V-component_of_WINDS"},"data":[0,0,0,0,0,0,0,0,0,0,0,0,0,0,0,0,0,0,0,0,0,0,0,0,0,0,0,0,0,0,0,0,0,0,0,0,0,0,0,0,0,0,0,0,0,0,0,0,0,0,0,0,0,0,0,0,0,0,1.1847,1.1848,0,1.193,1.1931,1.1932,1.1957,1.1956,1.1956,1.1956,1.2038,1.204,1.2043,0,0,0,0,0,0,0,0,0,0,0,0,0,1.1712,1.1714,1.1847,1.1848,1.1849,1.193,1.1931,1.1932,1.1957,1.1956,1.1956,1.1956,1.2037,1.204,1.2043,0,0,0,0,0,0,0,0,0,0,0,0,0,1.178,1.1715,1.1847,1.1871,1.1874,1.1929,1.1931,1.1932,1.1957,1.1956,1.1956,1.1955,1.2036,1.204,1.2044,1.2079,0,0,1.2055,1.2057,0,0,0,0,0,0,0,0,1.1776,1.1785,1.1867,1.187,1.1873,1.1932,1.1913,1.1981,1.1957,1.1926,1.1956,1.1955,1.2003,1.201,1.2026,1.2083,1.2087,1.2056,1.2058,1.206,1.2061,0,0,0,0,0,0,0,1.1771,1.1781,1.188,1.1868,1.1872,1.1879,1.1888,1.1926,1.1967,1.1928,1.193,1.194,1.2005,1.2023,1.2029,1.2088,1.2056,1.2059,1.2061,1.2063,1.2183,1.2183,0,0,0,0,0,0,1.1762,1.1777,1.1877,1.1882,1.1822,1.1882,1.1892,1.1914,1.1966,1.1974,1.194,1.1941,1.2016,1.2024,1.2032,1.2079,1.206,1.2063,1.2066,1.2182,1.2183,1.2184,0,0,0,0,0,0,1.1759,1.1771,1.1874,1.183,1.1844,1.1884,1.1909,1.1916,1.1934,1.1975,1.1983,1.1951,1.2016,1.2026,1.2068,1.2082,1.2065,1.2069,1.2181,1.2182,1.2183,1.2173,0,0,0,0,0,0,1.1755,1.177,1.1783,1.1831,1.1846,1.1909,1.191,1.1918,1.1941,1.1942,1.1987,1.1994,1.2017,1.2063,1.2072,1.2087,1.2072,1.218,1.2181,1.2183,1.2173,1.2174,1.2176,0,0,0,0,0,1.1751,1.1776,1.1784,1.1796,1.1864,1.1909,1.1918,1.1944,1.1942,1.1956,1.1984,1.1993,1.208,1.2067,1.2078,1.2094,1.2179,1.2181,1.2183,1.2172,1.2174,1.2176,0,0,0,0,0,0,1.1727,1.1782,1.1792,1.1833,1.1867,1.1914,1.1932,1.1945,1.1979,1.1978,1.2008,1.2018,1.2059,1.2081,1.2066,1.2134,1.213,1.2134,1.2118,1.212,1.2121,1.2115,1.2075,0,0,0,0,0,1.1727,1.176,1.1806,1.1838,1.1855,1.1891,1.1911,1.1929,1.1964,1.1978,1.2009,1.2042,1.2078,1.21,1.2134,1.2177,1.2188,1.2194,1.2195,1.2196,1.2199,1.2226,1.223,1.219,1.219,1.219,0,0,1.1726,1.1761,1.1779,1.1834,1.1862,1.1896,1.1902,1.1936,1.1962,1.1983,1.2026,1.205,1.209,1.2133,1.2153,1.2152,1.2213,1.2199,1.2199,1.2202,1.2229,1.2232,1.2236,1.2192,1.2191,1.2191,0,0,1.1743,1.1771,1.1803,1.1832,1.1875,1.19,1.1908,1.1954,1.1971,1.2015,1.2033,1.2064,1.2123,1.2152,1.2174,1.2207,1.2218,1.2217,1.2225,1.225,1.2254,1.2257,1.227,1.2274,1.2221,1.2221,1.2221,0,1.1736,1.1788,1.1817,1.1852,1.1877,1.19,1.1933,1.196,1.2011,1.2028,1.2027,1.2105,1.2133,1.2185,1.2193,1.221,1.2221,1.2212,1.2251,1.2254,1.2257,1.227,1.2275,1.222,1.222,1.222,1.222,0,1.1779,1.1815,1.1835,1.1887,1.1915,1.1948,1.1983,1.2007,1.2024,1.2049,1.2095,1.213,1.2174,1.2188,1.2202,1.2243,1.2241,1.2245,1.2241,1.226,1.2273,1.2278,1.222,1.222,1.222,1.222,0,0,1.1779,1.1851,1.1858,1.1883,1.1935,1.1964,1.2,1.2044,1.2065,1.2101,1.2133,1.2185,1.2191,1.2216,1.2235,1.2258,1.2285,1.226,1.2261,1.2264,1.2334,1.233,1.2336,1.2293,1.2294,1.2295,1.2331,0,1.1803,1.1869,1.1899,1.1951,1.1986,1.2011,1.2043,1.2079,1.2104,1.2138,1.2166,1.2203,1.2206,1.2223,1.2246,1.2276,1.2299,1.2274,1.2323,1.2324,1.2312,1.2342,1.2338,1.237,1.2336,1.2337,1.2337,0,1.1839,1.1878,1.1935,1.1986,1.2002,1.203,1.2075,1.2107,1.2149,1.2166,1.2197,1.2216,1.2257,1.2252,1.2308,1.2291,1.2313,1.2331,1.2333,1.2338,1.2331,1.2349,1.2381,1.2386,1.2345,1.2344,1.2344,0,1.1836,1.1902,1.1946,1.1967,1.2027,1.2047,1.2073,1.2115,1.2141,1.2181,1.2198,1.2241,1.2265,1.2299,1.233,1.2323,1.2384,1.2381,1.24,1.24,1.2411,1.241,1.2448,1.2425,1.2425,1.2425,1.2425,0,1.1859,1.1893,1.1946,1.1972,1.2012,1.2047,1.2085,1.2113,1.2151,1.2184,1.2208,1.2239,1.2278,1.2314,1.2339,1.2383,1.2393,1.2409,1.2415,1.2407,1.2405,1.2422,1.242,1.2426,1.2426,1.2426,1.2425,0,1.1861,1.1897,1.1947,1.2002,1.2017,1.2044,1.2091,1.2119,1.2147,1.2189,1.2201,1.2245,1.229,1.2324,1.2381,1.2398,1.2445,1.2452,1.2431,1.2435,1.2452,1.2451,1.2502,1.2511,1.2482,1.2482,1.2482,0,1.1873,1.19,1.196,1.1985,1.2011,1.205,1.2078,1.2115,1.2143,1.2196,1.2217,1.2264,1.2303,1.2373,1.241,1.2455,1.2463,1.2478,1.2469,1.2461,1.2464,1.2462,1.2466,1.2478,1.2478,1.2479,1.2479,0,1.1892,1.191,1.1949,1.1997,1.203,1.2069,1.2108,1.2127,1.217,1.2201,1.2248,1.2279,1.2339,1.2385,1.2435,1.2462,1.2478,1.2482,1.2489,1.248,1.2468,1.2477,1.2435,1.248,1.248,1.248,1.248,1.2479,1.19,1.1927,1.1974,1.2018,1.2053,1.209,1.2119,1.2153,1.2193,1.2246,1.2265,1.2314,1.2359,1.2427,1.2456,1.2495,1.2495,1.2505,1.2508,1.251,1.251,1.2463,1.2504,1.2504,1.2504,1.2504,1.2504,0,1.1921,1.1954,1.1995,1.205,1.2086,1.21,1.2146,1.2174,1.2217,1.2259,1.2298,1.2353,1.24,1.2442,1.2491,1.2514,1.2523,1.2526,1.2524,1.2531,1.2505,1.2495,1.2518,1.2518,1.2518,1.2518,1.2518,1.2518,1.1936,1.1983,1.2007,1.2073,1.2105,1.2154,1.2179,1.2214,1.2248,1.2309,1.2349,1.2377,1.242,1.2472,1.2516,1.2528,1.2545,1.2546,1.2559,1.2534,1.2532,1.253,1.2521,1.2549,1.2549,1.2582,1.2582,1.2582]}]]